Location: Kott?ru
(16.6209°N, 80.6208°E)
Time: 14:06:54
(UTC+00:00)

GPS 2-18 Rocket1 - Pass Details

Date: 18 September 2020
Orbit: 458 x 515 km, 20.9° (Epoch: 29 October)

Event Time Altitude Azimuth Distance (km) Brightness Sun altitude
Exits shadow 23:09:55 36° 319° (NW) 808 3.9 -19.0°
Maximum altitude 23:10:53 44° 358° (N) 705 3.8 -18.8°
Drops below altitude 10° 23:14:42 10° 71° (ENE) 1,715 7.1 -17.9°
Sets 23:17:01 0° 78° (ENE) 2,605 8.5 -17.4°
